Year,Month,Day,Hour,Minute,Value (Times are PST for temperature in C)
2009,04,07,00,00,4.80
2009,04,07,00,01,4.80
2009,04,07,00,02,4.70
2009,04,07,00,03,4.70
2009,04,07,00,04,4.70
2009,04,07,00,05,4.70
2009,04,07,00,06,4.80
2009,04,07,00,07,4.70
2009,04,07,00,08,4.80
2009,04,07,00,09,4.80
2009,04,07,00,10,4.80
2009,04,07,00,11,4.80
2009,04,07,00,12,4.90
2009,04,07,00,13,5.00
2009,04,07,00,14,5.00
2009,04,07,00,15,4.90
2009,04,07,00,16,4.80
2009,04,07,00,17,4.90
2009,04,07,00,18,4.80
2009,04,07,00,19,4.80
2009,04,07,00,20,4.70
2009,04,07,00,21,4.70
2009,04,07,00,22,4.70
2009,04,07,00,23,4.70
2009,04,07,00,24,4.60
2009,04,07,00,25,4.60
2009,04,07,00,26,4.60
2009,04,07,00,27,4.50
2009,04,07,00,28,4.50
2009,04,07,00,29,4.40
2009,04,07,00,30,4.40
2009,04,07,00,31,4.40
2009,04,07,00,32,4.30
2009,04,07,00,33,4.30
2009,04,07,00,34,4.30
2009,04,07,00,35,4.30
2009,04,07,00,36,4.30
2009,04,07,00,37,4.30
2009,04,07,00,38,4.20
2009,04,07,00,39,4.20
2009,04,07,00,40,4.20
2009,04,07,00,41,4.20
2009,04,07,00,42,4.20
2009,04,07,00,43,4.10
2009,04,07,00,44,4.10
2009,04,07,00,45,4.20
2009,04,07,00,46,4.20
2009,04,07,00,47,4.10
2009,04,07,00,48,4.10
2009,04,07,00,49,4.10
2009,04,07,00,50,4.10
2009,04,07,00,51,4.10
2009,04,07,00,52,4.10
2009,04,07,00,53,4.20
2009,04,07,00,54,4.20
2009,04,07,00,55,4.20
2009,04,07,00,56,4.20
2009,04,07,00,57,4.20
2009,04,07,00,58,4.30
2009,04,07,00,59,4.40
2009,04,07,01,00,4.60
2009,04,07,01,01,4.80
2009,04,07,01,02,4.90
2009,04,07,01,03,5.00
2009,04,07,01,04,5.10
2009,04,07,01,05,5.20
2009,04,07,01,06,5.20
2009,04,07,01,07,5.10
2009,04,07,01,08,5.00
2009,04,07,01,09,4.90
2009,04,07,01,10,4.80
2009,04,07,01,11,4.70
2009,04,07,01,12,4.60
2009,04,07,01,13,4.60
2009,04,07,01,14,4.50
2009,04,07,01,15,4.40
2009,04,07,01,16,4.30
2009,04,07,01,17,4.30
2009,04,07,01,18,4.20
2009,04,07,01,19,4.10
2009,04,07,01,20,4.10
2009,04,07,01,21,4.10
2009,04,07,01,22,4.10
2009,04,07,01,23,4.10
2009,04,07,01,24,4.20
2009,04,07,01,25,4.30
2009,04,07,01,26,4.30
2009,04,07,01,27,4.30
2009,04,07,01,28,4.30
2009,04,07,01,29,4.30
2009,04,07,01,30,4.30
2009,04,07,01,31,4.30
2009,04,07,01,32,4.30
2009,04,07,01,33,4.30
2009,04,07,01,34,4.40
2009,04,07,01,35,4.40
2009,04,07,01,36,4.40
2009,04,07,01,37,4.40
2009,04,07,01,38,4.50
2009,04,07,01,39,4.50
2009,04,07,01,40,4.70
2009,04,07,01,41,4.80
2009,04,07,01,42,4.80
2009,04,07,01,43,4.80
2009,04,07,01,44,4.90
2009,04,07,01,45,5.00
2009,04,07,01,46,5.00
2009,04,07,01,47,4.90
2009,04,07,01,48,4.90
2009,04,07,01,49,4.80
2009,04,07,01,50,4.70
2009,04,07,01,51,4.60
2009,04,07,01,52,4.60
2009,04,07,01,53,4.50
2009,04,07,01,54,4.40
2009,04,07,01,55,4.40
2009,04,07,01,56,4.40
2009,04,07,01,57,4.30
2009,04,07,01,58,4.30
2009,04,07,01,59,4.30
2009,04,07,02,00,4.20
2009,04,07,02,01,4.20
2009,04,07,02,02,4.20
2009,04,07,02,03,4.20
2009,04,07,02,04,4.20
2009,04,07,02,05,4.10
2009,04,07,02,06,4.10
2009,04,07,02,07,4.10
2009,04,07,02,08,4.10
2009,04,07,02,09,4.10
2009,04,07,02,10,4.10
2009,04,07,02,11,4.20
2009,04,07,02,12,4.10
2009,04,07,02,13,4.10
2009,04,07,02,14,4.10
2009,04,07,02,15,4.20
2009,04,07,02,16,4.10
2009,04,07,02,17,4.10
2009,04,07,02,18,4.10
2009,04,07,02,19,4.10
2009,04,07,02,20,4.10
2009,04,07,02,21,4.00
2009,04,07,02,22,4.00
2009,04,07,02,23,3.90
2009,04,07,02,24,3.90
2009,04,07,02,25,3.90
2009,04,07,02,26,3.90
2009,04,07,02,27,3.80
2009,04,07,02,28,3.80
2009,04,07,02,29,3.80
2009,04,07,02,30,3.90
2009,04,07,02,31,4.00
2009,04,07,02,32,4.10
2009,04,07,02,33,4.10
2009,04,07,02,34,4.30
2009,04,07,02,35,4.50
2009,04,07,02,36,4.70
2009,04,07,02,37,4.80
2009,04,07,02,38,4.80
2009,04,07,02,39,4.80
2009,04,07,02,40,4.90
2009,04,07,02,41,4.90
2009,04,07,02,42,5.00
2009,04,07,02,43,5.10
2009,04,07,02,44,5.20
2009,04,07,02,45,5.30
2009,04,07,02,46,5.30
2009,04,07,02,47,5.30
2009,04,07,02,48,5.20
2009,04,07,02,49,5.10
2009,04,07,02,50,5.20
2009,04,07,02,51,5.20
2009,04,07,02,52,5.10
2009,04,07,02,53,5.00
2009,04,07,02,54,4.80
2009,04,07,02,55,4.70
2009,04,07,02,56,4.60
2009,04,07,02,57,4.60
2009,04,07,02,58,4.50
2009,04,07,02,59,4.50
2009,04,07,03,00,4.40
2009,04,07,03,01,4.30
2009,04,07,03,02,4.30
2009,04,07,03,03,4.30
2009,04,07,03,04,4.30
2009,04,07,03,05,4.30
2009,04,07,03,06,4.20
2009,04,07,03,07,4.20
2009,04,07,03,08,4.10
2009,04,07,03,09,4.20
2009,04,07,03,10,4.30
2009,04,07,03,11,4.50
2009,04,07,03,12,4.60
2009,04,07,03,13,4.50
2009,04,07,03,14,4.40
2009,04,07,03,15,4.40
2009,04,07,03,16,4.40
2009,04,07,03,17,4.30
2009,04,07,03,18,4.30
2009,04,07,03,19,4.30
2009,04,07,03,20,4.30
2009,04,07,03,21,4.30
2009,04,07,03,22,4.30
2009,04,07,03,23,4.20
2009,04,07,03,24,4.20
2009,04,07,03,25,4.10
2009,04,07,03,26,4.00
2009,04,07,03,27,4.00
2009,04,07,03,28,3.90
2009,04,07,03,29,3.90
2009,04,07,03,30,3.80
2009,04,07,03,31,3.80
2009,04,07,03,32,3.70
2009,04,07,03,33,3.70
2009,04,07,03,34,3.70
2009,04,07,03,35,3.70
2009,04,07,03,36,3.70
2009,04,07,03,37,3.70
2009,04,07,03,38,3.70
2009,04,07,03,39,3.70
2009,04,07,03,40,3.60
2009,04,07,03,41,3.50
2009,04,07,03,42,3.40
2009,04,07,03,43,3.40
2009,04,07,03,44,3.40
2009,04,07,03,45,3.50
2009,04,07,03,46,3.40
2009,04,07,03,47,3.40
2009,04,07,03,48,3.40
2009,04,07,03,49,3.50
2009,04,07,03,50,3.60
2009,04,07,03,51,3.60
2009,04,07,03,52,3.60
2009,04,07,03,53,3.60
2009,04,07,03,54,3.60
2009,04,07,03,55,3.60
2009,04,07,03,56,3.70
2009,04,07,03,57,3.70
2009,04,07,03,58,3.70
2009,04,07,03,59,3.70
2009,04,07,04,00,3.70
2009,04,07,04,01,3.70
2009,04,07,04,02,3.70
2009,04,07,04,03,3.80
2009,04,07,04,04,3.80
2009,04,07,04,05,3.90
2009,04,07,04,06,3.90
2009,04,07,04,07,3.90
2009,04,07,04,08,3.90
2009,04,07,04,09,3.90
2009,04,07,04,10,3.80
2009,04,07,04,11,3.70
2009,04,07,04,12,3.60
2009,04,07,04,13,3.50
2009,04,07,04,14,3.50
2009,04,07,04,15,3.40
2009,04,07,04,16,3.40
2009,04,07,04,17,3.40
2009,04,07,04,18,3.40
2009,04,07,04,19,3.50
2009,04,07,04,20,3.50
2009,04,07,04,21,3.40
2009,04,07,04,22,3.50
2009,04,07,04,23,3.50
2009,04,07,04,24,3.40
2009,04,07,04,25,3.30
2009,04,07,04,26,3.30
2009,04,07,04,27,3.20
2009,04,07,04,28,3.20
2009,04,07,04,29,3.10
2009,04,07,04,30,3.00
2009,04,07,04,31,3.00
2009,04,07,04,32,3.10
2009,04,07,04,33,3.20
2009,04,07,04,34,3.20
2009,04,07,04,35,3.30
2009,04,07,04,36,3.40
2009,04,07,04,37,3.50
2009,04,07,04,38,3.60
2009,04,07,04,39,3.70
2009,04,07,04,40,3.70
2009,04,07,04,41,3.70
2009,04,07,04,42,3.80
2009,04,07,04,43,3.80
2009,04,07,04,44,3.80
2009,04,07,04,45,3.80
2009,04,07,04,46,3.90
2009,04,07,04,47,3.90
2009,04,07,04,48,3.90
2009,04,07,04,49,3.90
2009,04,07,04,50,3.90
2009,04,07,04,51,3.90
2009,04,07,04,52,3.80
2009,04,07,04,53,3.80
2009,04,07,04,54,3.70
2009,04,07,04,55,3.70
2009,04,07,04,56,3.70
2009,04,07,04,57,3.70
2009,04,07,04,58,3.80
2009,04,07,04,59,3.80
2009,04,07,05,00,3.80
2009,04,07,05,01,3.80
2009,04,07,05,02,3.80
2009,04,07,05,03,3.80
2009,04,07,05,04,3.70
2009,04,07,05,05,3.60
2009,04,07,05,06,3.40
2009,04,07,05,07,3.30
2009,04,07,05,08,3.20
2009,04,07,05,09,3.10
2009,04,07,05,10,3.00
2009,04,07,05,11,3.00
2009,04,07,05,12,3.00
2009,04,07,05,13,3.00
2009,04,07,05,14,3.00
2009,04,07,05,15,3.00
2009,04,07,05,16,3.00
2009,04,07,05,17,3.00
2009,04,07,05,18,3.00
2009,04,07,05,19,3.00
2009,04,07,05,20,2.90
2009,04,07,05,21,2.90
2009,04,07,05,22,3.00
2009,04,07,05,23,3.00
2009,04,07,05,24,3.00
2009,04,07,05,25,3.00
2009,04,07,05,26,3.10
2009,04,07,05,27,3.00
2009,04,07,05,28,3.00
2009,04,07,05,29,3.00
2009,04,07,05,30,3.00
2009,04,07,05,31,3.00
2009,04,07,05,32,3.00
2009,04,07,05,33,3.00
2009,04,07,05,34,2.90
2009,04,07,05,35,2.80
2009,04,07,05,36,2.80
2009,04,07,05,37,2.80
2009,04,07,05,38,2.90
2009,04,07,05,39,2.80
2009,04,07,05,40,2.80
2009,04,07,05,41,2.70
2009,04,07,05,42,2.60
2009,04,07,05,43,2.60
2009,04,07,05,44,2.60
2009,04,07,05,45,2.60
2009,04,07,05,46,2.70
2009,04,07,05,47,2.70
2009,04,07,05,48,2.80
2009,04,07,05,49,2.80
2009,04,07,05,50,2.80
2009,04,07,05,51,2.80
2009,04,07,05,52,2.80
2009,04,07,05,53,2.70
2009,04,07,05,54,2.60
2009,04,07,05,55,2.60
2009,04,07,05,56,2.60
2009,04,07,05,57,2.70
2009,04,07,05,58,2.80
2009,04,07,05,59,2.80
2009,04,07,06,00,2.80
2009,04,07,06,01,2.80
2009,04,07,06,02,2.80
2009,04,07,06,03,2.80
2009,04,07,06,04,2.70
2009,04,07,06,05,2.70
2009,04,07,06,06,2.60
2009,04,07,06,07,2.60
2009,04,07,06,08,2.70
2009,04,07,06,09,2.70
2009,04,07,06,10,2.70
2009,04,07,06,11,2.80
2009,04,07,06,12,2.80
2009,04,07,06,13,2.70
2009,04,07,06,14,2.70
2009,04,07,06,15,2.60
2009,04,07,06,16,2.50
2009,04,07,06,17,2.40
2009,04,07,06,18,2.40
2009,04,07,06,19,2.40
2009,04,07,06,20,2.30
2009,04,07,06,21,2.30
2009,04,07,06,22,2.20
2009,04,07,06,23,2.10
2009,04,07,06,24,2.10
2009,04,07,06,25,2.00
2009,04,07,06,26,2.10
2009,04,07,06,27,2.00
2009,04,07,06,28,2.00
2009,04,07,06,29,1.90
2009,04,07,06,30,1.90
2009,04,07,06,31,1.90
2009,04,07,06,32,1.90
2009,04,07,06,33,1.90
2009,04,07,06,34,1.80
2009,04,07,06,35,1.80
2009,04,07,06,36,1.80
2009,04,07,06,37,1.70
2009,04,07,06,38,1.70
2009,04,07,06,39,1.70
2009,04,07,06,40,1.70
2009,04,07,06,41,1.70
2009,04,07,06,42,1.70
2009,04,07,06,43,1.70
2009,04,07,06,44,1.70
2009,04,07,06,45,1.80
2009,04,07,06,46,1.80
2009,04,07,06,47,1.80
2009,04,07,06,48,1.80
2009,04,07,06,49,1.80
2009,04,07,06,50,1.70
2009,04,07,06,51,1.80
2009,04,07,06,52,1.80
2009,04,07,06,53,1.80
2009,04,07,06,54,1.80
2009,04,07,06,55,1.80
2009,04,07,06,56,1.80
2009,04,07,06,57,1.80
2009,04,07,06,58,1.80
2009,04,07,06,59,1.80
2009,04,07,07,00,1.80
2009,04,07,07,01,1.90
2009,04,07,07,02,2.00
2009,04,07,07,03,2.10
2009,04,07,07,04,2.00
2009,04,07,07,05,1.90
2009,04,07,07,06,1.90
2009,04,07,07,07,1.90
2009,04,07,07,08,1.90
2009,04,07,07,09,1.90
2009,04,07,07,10,1.90
2009,04,07,07,11,2.00
2009,04,07,07,12,2.00
2009,04,07,07,13,2.10
2009,04,07,07,14,2.20
2009,04,07,07,15,2.20
2009,04,07,07,16,2.30
2009,04,07,07,17,2.30
2009,04,07,07,18,2.30
2009,04,07,07,19,2.30
2009,04,07,07,20,2.30
2009,04,07,07,21,2.30
2009,04,07,07,22,2.30
2009,04,07,07,23,2.30
2009,04,07,07,24,2.40
2009,04,07,07,25,2.40
2009,04,07,07,26,2.40
2009,04,07,07,27,2.40
2009,04,07,07,28,2.50
2009,04,07,07,29,2.50
2009,04,07,07,30,2.60
2009,04,07,07,31,2.70
2009,04,07,07,32,2.80
2009,04,07,07,33,2.90
2009,04,07,07,34,3.10
2009,04,07,07,35,3.20
2009,04,07,07,36,3.30
2009,04,07,07,37,3.40
2009,04,07,07,38,3.50
2009,04,07,07,39,3.50
2009,04,07,07,40,3.60
2009,04,07,07,41,3.60
2009,04,07,07,42,3.70
2009,04,07,07,43,3.70
2009,04,07,07,44,3.90
2009,04,07,07,45,4.00
2009,04,07,07,46,4.10
2009,04,07,07,47,4.10
2009,04,07,07,48,4.20
2009,04,07,07,49,4.30
2009,04,07,07,50,4.40
2009,04,07,07,51,4.40
2009,04,07,07,52,4.50
2009,04,07,07,53,4.50
2009,04,07,07,54,4.60
2009,04,07,07,55,4.60
2009,04,07,07,56,4.60
2009,04,07,07,57,4.60
2009,04,07,07,58,4.70
2009,04,07,07,59,4.80
2009,04,07,08,00,4.80
2009,04,07,08,01,4.90
2009,04,07,08,02,5.10
2009,04,07,08,03,5.20
2009,04,07,08,04,5.30
2009,04,07,08,05,5.50
2009,04,07,08,06,5.60
2009,04,07,08,07,5.70
2009,04,07,08,08,5.80
2009,04,07,08,09,6.00
2009,04,07,08,10,6.10
2009,04,07,08,11,6.20
2009,04,07,08,12,6.30
2009,04,07,08,13,6.50
2009,04,07,08,14,6.60
2009,04,07,08,15,6.70
2009,04,07,08,16,6.80
2009,04,07,08,17,6.90
2009,04,07,08,18,7.00
2009,04,07,08,19,7.20
2009,04,07,08,20,7.20
2009,04,07,08,21,7.30
2009,04,07,08,22,7.40
2009,04,07,08,23,7.50
2009,04,07,08,24,7.60
2009,04,07,08,25,7.70
2009,04,07,08,26,7.80
2009,04,07,08,27,7.90
2009,04,07,08,28,7.90
2009,04,07,08,29,8.00
2009,04,07,08,30,8.10
2009,04,07,08,31,8.20
2009,04,07,08,32,8.30
2009,04,07,08,33,8.30
2009,04,07,08,34,8.30
2009,04,07,08,35,8.40
2009,04,07,08,36,8.40
2009,04,07,08,37,8.40
2009,04,07,08,38,8.40
2009,04,07,08,39,8.40
2009,04,07,08,40,8.40
2009,04,07,08,41,8.40
2009,04,07,08,42,8.40
2009,04,07,08,43,8.40
2009,04,07,08,44,8.40
2009,04,07,08,45,8.50
2009,04,07,08,46,8.40
2009,04,07,08,47,8.40
2009,04,07,08,48,8.40
2009,04,07,08,49,8.40
2009,04,07,08,50,8.40
2009,04,07,08,51,8.40
2009,04,07,08,52,8.50
2009,04,07,08,53,8.50
2009,04,07,08,54,8.50
2009,04,07,08,55,8.60
2009,04,07,08,56,8.60
2009,04,07,08,57,8.60
2009,04,07,08,58,8.60
2009,04,07,08,59,8.70
2009,04,07,09,00,8.70
2009,04,07,09,01,8.70
2009,04,07,09,02,8.70
2009,04,07,09,03,8.70
2009,04,07,09,04,8.70
2009,04,07,09,05,8.80
2009,04,07,09,06,8.90
2009,04,07,09,07,8.90
2009,04,07,09,08,8.90
2009,04,07,09,09,8.90
2009,04,07,09,10,9.00
2009,04,07,09,11,9.10
2009,04,07,09,12,9.10
2009,04,07,09,13,9.10
2009,04,07,09,14,9.20
2009,04,07,09,15,9.20
2009,04,07,09,16,9.30
2009,04,07,09,17,9.30
2009,04,07,09,18,9.40
2009,04,07,09,19,9.50
2009,04,07,09,20,9.50
2009,04,07,09,21,9.60
2009,04,07,09,22,9.60
2009,04,07,09,23,9.60
2009,04,07,09,24,9.50
2009,04,07,09,25,9.50
2009,04,07,09,26,9.40
2009,04,07,09,27,9.40
2009,04,07,09,28,9.40
2009,04,07,09,29,9.30
2009,04,07,09,30,9.30
2009,04,07,09,31,9.30
2009,04,07,09,32,9.30
2009,04,07,09,33,9.30
2009,04,07,09,34,9.20
2009,04,07,09,35,9.20
2009,04,07,09,36,9.30
2009,04,07,09,37,9.30
2009,04,07,09,38,9.30
2009,04,07,09,39,9.30
2009,04,07,09,40,9.30
2009,04,07,09,41,9.30
2009,04,07,09,42,9.20
2009,04,07,09,43,9.20
2009,04,07,09,44,9.10
2009,04,07,09,45,9.00
2009,04,07,09,46,9.00
2009,04,07,09,47,8.90
2009,04,07,09,48,8.80
2009,04,07,09,49,8.80
2009,04,07,09,50,8.80
2009,04,07,09,51,8.70
2009,04,07,09,52,8.80
2009,04,07,09,53,8.80
2009,04,07,09,54,8.70
2009,04,07,09,55,8.70
2009,04,07,09,56,8.70
2009,04,07,09,57,8.70
2009,04,07,09,58,8.70
2009,04,07,09,59,8.60
2009,04,07,10,00,8.50
2009,04,07,10,01,8.40
2009,04,07,10,02,8.40
2009,04,07,10,03,8.40
2009,04,07,10,04,8.40
2009,04,07,10,05,8.40
2009,04,07,10,06,8.40
2009,04,07,10,07,8.50
2009,04,07,10,08,8.50
2009,04,07,10,09,8.60
2009,04,07,10,10,8.60
2009,04,07,10,11,8.60
2009,04,07,10,12,8.70
2009,04,07,10,13,8.80
2009,04,07,10,14,8.80
2009,04,07,10,15,8.90
2009,04,07,10,16,8.90
2009,04,07,10,17,8.90
2009,04,07,10,18,8.90
2009,04,07,10,19,8.80
2009,04,07,10,20,8.80
2009,04,07,10,21,8.80
2009,04,07,10,22,8.80
2009,04,07,10,23,8.80
2009,04,07,10,24,8.80
2009,04,07,10,25,8.80
2009,04,07,10,26,8.80
2009,04,07,10,27,8.70
2009,04,07,10,28,8.80
2009,04,07,10,29,8.80
2009,04,07,10,30,8.80
2009,04,07,10,31,8.80
2009,04,07,10,32,8.80
2009,04,07,10,33,8.70
2009,04,07,10,34,8.70
2009,04,07,10,35,8.70
2009,04,07,10,36,8.70
2009,04,07,10,37,8.70
2009,04,07,10,38,8.70
2009,04,07,10,39,8.70
2009,04,07,10,40,8.80
2009,04,07,10,41,8.80
2009,04,07,10,42,8.80
2009,04,07,10,43,8.90
2009,04,07,10,44,8.90
2009,04,07,10,45,8.90
2009,04,07,10,46,9.00
2009,04,07,10,47,9.10
2009,04,07,10,48,9.10
2009,04,07,10,49,9.10
2009,04,07,10,50,9.10
2009,04,07,10,51,9.10
2009,04,07,10,52,9.20
2009,04,07,10,53,9.20
2009,04,07,10,54,9.20
2009,04,07,10,55,9.20
2009,04,07,10,56,9.10
2009,04,07,10,57,9.10
2009,04,07,10,58,9.00
2009,04,07,10,59,9.00
2009,04,07,11,00,9.00
2009,04,07,11,01,8.90
2009,04,07,11,02,8.90
2009,04,07,11,03,8.90
2009,04,07,11,04,8.80
2009,04,07,11,05,8.80
2009,04,07,11,06,8.80
2009,04,07,11,07,8.80
2009,04,07,11,08,8.90
2009,04,07,11,09,8.90
2009,04,07,11,10,8.90
2009,04,07,11,11,8.80
2009,04,07,11,12,8.80
2009,04,07,11,13,8.80
2009,04,07,11,14,8.80
2009,04,07,11,15,8.80
2009,04,07,11,16,8.80
2009,04,07,11,17,8.90
2009,04,07,11,18,8.90
2009,04,07,11,19,8.90
2009,04,07,11,20,8.90
2009,04,07,11,21,8.90
2009,04,07,11,22,8.80
2009,04,07,11,23,8.80
2009,04,07,11,24,8.80
2009,04,07,11,25,8.80
2009,04,07,11,26,8.80
2009,04,07,11,27,8.90
2009,04,07,11,28,8.90
2009,04,07,11,29,8.90
2009,04,07,11,30,8.90
2009,04,07,11,31,8.90
2009,04,07,11,32,8.90
2009,04,07,11,33,8.80
2009,04,07,11,34,8.90
2009,04,07,11,35,8.90
2009,04,07,11,36,8.90
2009,04,07,11,37,8.90
2009,04,07,11,38,8.90
2009,04,07,11,39,8.90
2009,04,07,11,40,9.00
2009,04,07,11,41,9.10
2009,04,07,11,42,9.20
2009,04,07,11,43,9.30
2009,04,07,11,44,9.60
2009,04,07,11,45,9.80
2009,04,07,11,46,9.90
2009,04,07,11,47,9.90
2009,04,07,11,48,9.90
2009,04,07,11,49,9.90
2009,04,07,11,50,10.10
2009,04,07,11,51,10.10
2009,04,07,11,52,10.20
2009,04,07,11,53,10.30
2009,04,07,11,54,10.40
2009,04,07,11,55,10.40
2009,04,07,11,56,10.30
2009,04,07,11,57,10.20
2009,04,07,11,58,10.10
2009,04,07,11,59,10.00
2009,04,07,12,00,9.90
2009,04,07,12,01,9.90
2009,04,07,12,02,9.90
2009,04,07,12,03,9.90
2009,04,07,12,04,9.90
2009,04,07,12,05,9.90
2009,04,07,12,06,9.90
2009,04,07,12,07,9.80
2009,04,07,12,08,9.70
2009,04,07,12,09,9.70
2009,04,07,12,10,9.60
2009,04,07,12,11,9.70
2009,04,07,12,12,9.60
2009,04,07,12,13,9.60
2009,04,07,12,14,9.70
2009,04,07,12,15,9.70
2009,04,07,12,16,9.70
2009,04,07,12,17,9.70
2009,04,07,12,18,9.80
2009,04,07,12,19,9.90
2009,04,07,12,20,9.90
2009,04,07,12,21,9.90
2009,04,07,12,22,10.00
2009,04,07,12,23,10.10
2009,04,07,12,24,10.00
2009,04,07,12,25,9.90
2009,04,07,12,26,9.80
2009,04,07,12,27,9.80
2009,04,07,12,28,9.70
2009,04,07,12,29,9.70
2009,04,07,12,30,9.60
2009,04,07,12,31,9.60
2009,04,07,12,32,9.70
2009,04,07,12,33,9.70
2009,04,07,12,34,9.60
2009,04,07,12,35,9.60
2009,04,07,12,36,9.60
2009,04,07,12,37,9.60
2009,04,07,12,38,9.60
2009,04,07,12,39,9.70
2009,04,07,12,40,9.70
2009,04,07,12,41,9.70
2009,04,07,12,42,9.70
2009,04,07,12,43,9.70
2009,04,07,12,44,9.70
2009,04,07,12,45,9.70
2009,04,07,12,46,9.70
2009,04,07,12,47,9.80
2009,04,07,12,48,9.80
2009,04,07,12,49,9.80
2009,04,07,12,50,9.80
2009,04,07,12,51,9.90
2009,04,07,12,52,9.90
2009,04,07,12,53,9.90
2009,04,07,12,54,10.00
2009,04,07,12,55,10.00
2009,04,07,12,56,10.10
2009,04,07,12,57,10.20
2009,04,07,12,58,10.20
2009,04,07,12,59,10.30
2009,04,07,13,00,10.40
2009,04,07,13,01,10.50
2009,04,07,13,02,10.60
2009,04,07,13,03,10.60
2009,04,07,13,04,10.60
2009,04,07,13,05,10.60
2009,04,07,13,06,10.60
2009,04,07,13,07,10.60
2009,04,07,13,08,10.60
2009,04,07,13,09,10.70
2009,04,07,13,10,10.70
2009,04,07,13,11,10.80
2009,04,07,13,12,10.80
2009,04,07,13,13,10.80
2009,04,07,13,14,10.90
2009,04,07,13,15,10.90
2009,04,07,13,16,10.90
2009,04,07,13,17,10.90
2009,04,07,13,18,10.90
2009,04,07,13,19,10.90
2009,04,07,13,20,10.90
2009,04,07,13,21,10.90
2009,04,07,13,22,10.90
2009,04,07,13,23,10.90
2009,04,07,13,24,10.90
2009,04,07,13,25,10.90
2009,04,07,13,26,11.00
2009,04,07,13,27,11.10
2009,04,07,13,28,11.10
2009,04,07,13,29,11.10
2009,04,07,13,30,11.10
2009,04,07,13,31,11.10
2009,04,07,13,32,11.10
2009,04,07,13,33,11.20
2009,04,07,13,34,11.20
2009,04,07,13,35,11.20
2009,04,07,13,36,11.20
2009,04,07,13,37,11.20
2009,04,07,13,38,11.30
2009,04,07,13,39,11.30
2009,04,07,13,40,11.30
2009,04,07,13,41,11.40
2009,04,07,13,42,11.50
2009,04,07,13,43,11.50
2009,04,07,13,44,11.60
2009,04,07,13,45,11.60
2009,04,07,13,46,11.60
2009,04,07,13,47,11.60
2009,04,07,13,48,11.60
2009,04,07,13,49,11.70
2009,04,07,13,50,11.70
2009,04,07,13,51,11.70
2009,04,07,13,52,11.70
2009,04,07,13,53,11.80
2009,04,07,13,54,11.90
2009,04,07,13,55,12.00
2009,04,07,13,56,12.10
2009,04,07,13,57,12.10
2009,04,07,13,58,12.20
2009,04,07,13,59,12.20
2009,04,07,14,00,12.30
2009,04,07,14,01,12.30
2009,04,07,14,02,12.30
2009,04,07,14,03,12.30
2009,04,07,14,04,12.40
2009,04,07,14,05,12.40
2009,04,07,14,06,12.50
2009,04,07,14,07,12.60
2009,04,07,14,08,12.70
2009,04,07,14,09,12.70
2009,04,07,14,10,12.70
2009,04,07,14,11,12.60
2009,04,07,14,12,12.60
2009,04,07,14,13,12.60
2009,04,07,14,14,12.60
2009,04,07,14,15,12.70
2009,04,07,14,16,12.70
2009,04,07,14,17,12.70
2009,04,07,14,18,12.70
2009,04,07,14,19,12.70
2009,04,07,14,20,12.70
2009,04,07,14,21,12.60
2009,04,07,14,22,12.60
2009,04,07,14,23,12.60
2009,04,07,14,24,12.70
2009,04,07,14,25,12.60
2009,04,07,14,26,12.60
2009,04,07,14,27,12.60
2009,04,07,14,28,12.70
2009,04,07,14,29,12.70
2009,04,07,14,30,12.80
2009,04,07,14,31,12.80
2009,04,07,14,32,12.80
2009,04,07,14,33,12.90
2009,04,07,14,34,13.00
2009,04,07,14,35,12.90
2009,04,07,14,36,12.90
2009,04,07,14,37,12.90
2009,04,07,14,38,12.90
2009,04,07,14,39,13.00
2009,04,07,14,40,13.10
2009,04,07,14,41,13.20
2009,04,07,14,42,13.20
2009,04,07,14,43,13.20
2009,04,07,14,44,13.20
2009,04,07,14,45,13.30
2009,04,07,14,46,13.30
2009,04,07,14,47,13.40
2009,04,07,14,48,13.40
2009,04,07,14,49,13.40
2009,04,07,14,50,13.40
2009,04,07,14,51,13.40
2009,04,07,14,52,13.40
2009,04,07,14,53,13.40
2009,04,07,14,54,13.40
2009,04,07,14,55,13.30
2009,04,07,14,56,13.30
2009,04,07,14,57,13.30
2009,04,07,14,58,13.30
2009,04,07,14,59,13.40
2009,04,07,15,00,13.40
2009,04,07,15,01,13.40
2009,04,07,15,02,13.50
2009,04,07,15,03,13.60
2009,04,07,15,04,13.60
2009,04,07,15,05,13.60
2009,04,07,15,06,13.70
2009,04,07,15,07,13.70
2009,04,07,15,08,13.70
2009,04,07,15,09,13.70
2009,04,07,15,10,13.60
2009,04,07,15,11,13.60
2009,04,07,15,12,13.50
2009,04,07,15,13,13.40
2009,04,07,15,14,13.40
2009,04,07,15,15,13.40
2009,04,07,15,16,13.40
2009,04,07,15,17,13.40
2009,04,07,15,18,13.40
2009,04,07,15,19,13.40
2009,04,07,15,20,13.40
2009,04,07,15,21,13.40
2009,04,07,15,22,13.40
2009,04,07,15,23,13.40
2009,04,07,15,24,13.50
2009,04,07,15,25,13.60
2009,04,07,15,26,13.60
2009,04,07,15,27,13.60
2009,04,07,15,28,13.60
2009,04,07,15,29,13.60
2009,04,07,15,30,13.60
2009,04,07,15,31,13.60
2009,04,07,15,32,13.60
2009,04,07,15,33,13.60
2009,04,07,15,34,13.60
2009,04,07,15,35,13.60
2009,04,07,15,36,13.60
2009,04,07,15,37,13.50
2009,04,07,15,38,13.50
2009,04,07,15,39,13.50
2009,04,07,15,40,13.60
2009,04,07,15,41,13.60
2009,04,07,15,42,13.60
2009,04,07,15,43,13.60
2009,04,07,15,44,13.70
2009,04,07,15,45,13.80
2009,04,07,15,46,13.90
2009,04,07,15,47,13.90
2009,04,07,15,48,13.90
2009,04,07,15,49,13.90
2009,04,07,15,50,13.90
2009,04,07,15,51,13.90
2009,04,07,15,52,13.90
2009,04,07,15,53,14.00
2009,04,07,15,54,14.00
2009,04,07,15,55,14.10
2009,04,07,15,56,14.10
2009,04,07,15,57,14.20
2009,04,07,15,58,14.30
2009,04,07,15,59,14.30
2009,04,07,16,00,14.30
2009,04,07,16,01,14.30
2009,04,07,16,02,14.40
2009,04,07,16,03,14.50
2009,04,07,16,04,14.70
2009,04,07,16,05,14.70
2009,04,07,16,06,14.70
2009,04,07,16,07,14.80
2009,04,07,16,08,14.80
2009,04,07,16,09,14.80
2009,04,07,16,10,14.80
2009,04,07,16,11,14.80
2009,04,07,16,12,14.80
2009,04,07,16,13,14.80
2009,04,07,16,14,14.70
2009,04,07,16,15,14.70
2009,04,07,16,16,14.70
2009,04,07,16,17,14.70
2009,04,07,16,18,14.70
2009,04,07,16,19,14.70
2009,04,07,16,20,14.70
2009,04,07,16,21,14.60
2009,04,07,16,22,14.60
2009,04,07,16,23,14.60
2009,04,07,16,24,14.60
2009,04,07,16,25,14.60
2009,04,07,16,26,14.70
2009,04,07,16,27,14.70
2009,04,07,16,28,14.60
2009,04,07,16,29,14.50
2009,04,07,16,30,14.50
2009,04,07,16,31,14.40
2009,04,07,16,32,14.40
2009,04,07,16,33,14.40
2009,04,07,16,34,14.40
2009,04,07,16,35,14.50
2009,04,07,16,36,14.40
2009,04,07,16,37,14.40
2009,04,07,16,38,14.30
2009,04,07,16,39,14.20
2009,04,07,16,40,14.10
2009,04,07,16,41,14.10
2009,04,07,16,42,14.10
2009,04,07,16,43,14.10
2009,04,07,16,44,14.10
2009,04,07,16,45,14.20
2009,04,07,16,46,14.10
2009,04,07,16,47,14.10
2009,04,07,16,48,14.00
2009,04,07,16,49,13.80
2009,04,07,16,50,13.70
2009,04,07,16,51,13.70
2009,04,07,16,52,13.70
2009,04,07,16,53,13.60
2009,04,07,16,54,13.60
2009,04,07,16,55,13.60
2009,04,07,16,56,13.70
2009,04,07,16,57,13.70
2009,04,07,16,58,13.80
2009,04,07,16,59,13.90
2009,04,07,17,00,13.90
2009,04,07,17,01,14.00
2009,04,07,17,02,14.10
2009,04,07,17,03,14.20
2009,04,07,17,04,14.30
2009,04,07,17,05,14.30
2009,04,07,17,06,14.40
2009,04,07,17,07,14.40
2009,04,07,17,08,14.40
2009,04,07,17,09,14.50
2009,04,07,17,10,14.50
2009,04,07,17,11,14.50
2009,04,07,17,12,14.50
2009,04,07,17,13,14.60
2009,04,07,17,14,14.60
2009,04,07,17,15,14.60
2009,04,07,17,16,14.60
2009,04,07,17,17,14.60
2009,04,07,17,18,14.60
2009,04,07,17,19,14.70
2009,04,07,17,20,14.70
2009,04,07,17,21,14.80
2009,04,07,17,22,14.80
2009,04,07,17,23,14.70
2009,04,07,17,24,14.60
2009,04,07,17,25,14.40
2009,04,07,17,26,14.30
2009,04,07,17,27,14.30
2009,04,07,17,28,14.30
2009,04,07,17,29,14.20
2009,04,07,17,30,14.20
2009,04,07,17,31,14.10
2009,04,07,17,32,14.10
2009,04,07,17,33,14.00
2009,04,07,17,34,13.90
2009,04,07,17,35,13.90
2009,04,07,17,36,13.80
2009,04,07,17,37,13.80
2009,04,07,17,38,13.70
2009,04,07,17,39,13.70
2009,04,07,17,40,13.70
2009,04,07,17,41,13.70
2009,04,07,17,42,13.70
2009,04,07,17,43,13.70
2009,04,07,17,44,13.70
2009,04,07,17,45,13.70
2009,04,07,17,46,13.80
2009,04,07,17,47,13.80
2009,04,07,17,48,13.90
2009,04,07,17,49,14.00
2009,04,07,17,50,14.00
2009,04,07,17,51,14.10
2009,04,07,17,52,14.20